Change the Weather History Date:

Friday, September 28, 2012

  Actual Average Record
Temperature  
Mean Temperature 59 °F 58 °F  
Max Temperature 80 °F 72 °F 90 °F (1922)
Min Temperature 37 °F 45 °F 24 °F (1942)
Degree Days  
Heating Degree Days 6 8  
Month to date heating degree days 99 110  
Since 1 July heating degree days 110 126  
Cooling Degree Days 0 1  
Month to date cooling degree days 106 89  
Year to date cooling degree days 1373 905  
Growing Degree Days 8 (Base 50)    
Moisture  
Dew Point 29 °F    
Average Humidity 44    
Maximum Humidity 76    
Minimum Humidity 12    
Precipitation  
Precipitation 0.00 in 0.09 in 1.82 in (1923)
Month to date precipitation 0.61 2.52  
Year to date precipitation 12.45 23.05  
Snow  
Snow 0.00 in 0.00 in - ()
Month to date snowfall 0.0 0.0  
Since 1 July snowfall 0.0 0.0  
Snow Depth 0.00 in    
Sea Level Pressure  
Sea Level Pressure 30.15 in    
Wind  
Wind Speed 2 mph (ESE)    
Max Wind Speed 9 mph    
Max Gust Speed 14 mph    
Visibility 10 miles    
Events      
T = Trace of Precipitation, MM = Missing Value Source: NWS Daily Summary

Daily Weather History Graph

Daily Weather History Graph

Search for Another Location

Airport or City:

Trip Planner

Search our weather history database for the weather conditions in past years. The results will help you decide how hot, cold, wet, or windy it might be!

Date:

Astronomy

Sep. 28, 2012 Rise Set
Actual Time 7:24 AM CDT 7:15 PM CDT
Civil Twilight 6:56 AM CDT 7:43 PM CDT
Nautical Twilight 6:23 AM CDT 8:15 PM CDT
Astronomical Twilight 5:50 AM CDT 8:48 PM CDT
Moon 6:18 PM CDT (9/28) 5:55 AM CDT (9/28)
Length of Visible Light 12h 47m
Length of Day
11h 51m
Waxing Gibbous, 98% of the Moon is Illuminated
Sep 28
Waxing Gibbous
Sep 29
Full
Oct 8
Last Quarter
Oct 15
New
Oct 21
First Quarter

Hourly Weather History & Observations

Time (CDT) Temp. Dew Point Humidity Pressure Visibility Wind Dir Wind Speed Gust Speed Precip Events Conditions
12:56 AM 43.0 °F 30.9 °F 62% 30.16 in 10.0 mi Calm Calm - N/A   Clear
1:56 AM 42.1 °F 32.0 °F 67% 30.16 in 10.0 mi Calm Calm - N/A   Clear
2:56 AM 41.0 °F 30.9 °F 67% 30.15 in 10.0 mi Calm Calm - N/A   Clear
3:56 AM 37.0 °F 30.9 °F 79% 30.15 in 10.0 mi Calm Calm - N/A   Clear
4:56 AM 39.0 °F 30.9 °F 73% 30.15 in 10.0 mi Calm Calm - N/A   Clear
5:56 AM 37.0 °F 30.9 °F 79% 30.18 in 10.0 mi Calm Calm - N/A   Clear
6:56 AM 37.9 °F 30.9 °F 76% 30.18 in 10.0 mi Calm Calm - N/A   Clear
7:56 AM 39.9 °F 32.0 °F 73% 30.19 in 10.0 mi Calm Calm - N/A   Clear
8:56 AM 46.0 °F 34.0 °F 63% 30.19 in 10.0 mi Calm Calm - N/A   Clear
9:56 AM 52.0 °F 35.1 °F 53% 30.19 in 7.0 mi Calm Calm - N/A   Clear
10:56 AM 63.0 °F 34.0 °F 34% 30.19 in 8.0 mi Calm Calm - N/A   Clear
11:56 AM 66.9 °F 34.0 °F 30% 30.19 in 8.0 mi NNE 4.6 mph - N/A   Clear
12:56 PM 75.0 °F 27.0 °F 17% 30.17 in 10.0 mi Variable 5.8 mph - N/A   Clear
1:56 PM 75.9 °F 27.0 °F 16% 30.15 in 10.0 mi WNW 5.8 mph - N/A   Clear
2:56 PM 79.0 °F 26.1 °F 14% 30.12 in 10.0 mi Variable 3.5 mph - N/A   Clear
3:56 PM 80.1 °F 23.0 °F 12% 30.11 in 10.0 mi NNE 5.8 mph - N/A   Clear
4:56 PM 78.1 °F 23.0 °F 13% 30.09 in 10.0 mi Variable 5.8 mph - N/A   Clear
5:56 PM 77.0 °F 23.0 °F 13% 30.10 in 10.0 mi ESE 4.6 mph - N/A   Clear
6:56 PM 69.1 °F 26.1 °F 20% 30.10 in 10.0 mi SE 4.6 mph - N/A   Clear
7:56 PM 62.1 °F 26.1 °F 25% 30.12 in 10.0 mi SSE 6.9 mph - N/A   Clear
8:56 PM 57.0 °F 27.0 °F 32% 30.13 in 10.0 mi ESE 5.8 mph - N/A   Clear
9:56 PM 53.1 °F 28.0 °F 38% 30.14 in 10.0 mi SE 4.6 mph - N/A   Clear
10:56 PM 53.1 °F 27.0 °F 37% 30.15 in 10.0 mi Calm Calm - N/A   Clear
11:56 PM 48.9 °F 28.0 °F 44% 30.15 in 10.0 mi Calm Calm - N/A   Clear